QPF
0.00 0.00 0.00 0.00 0.01 0.03 0.04 0.03 0.05 0.04 0.03 0.02 0.02 0.02 0.02 0.01 0.02 0.06 0.12 0.13 0.13 0.09 0.02 0.01 0.00 0.00 0.00 0.00 0.00 0.00 0.00 0.00 0.01 0.00 0.01 0.00 0.00 0.00 0.00 0.00 0.00 0.00 0.00 0.00 0.00 0.00 0.00 0.00 0.00
0.00 0.00 0.00 0.00 0.01 0.01 0.02 0.02 0.03 0.03 0.03 0.03 0.02 0.02 0.02 0.01 0.01 0.04 0.07 0.06 0.08 0.08 0.04 0.01 0.01 0.00 0.00 0.00 0.00 0.00 0.00 0.00 0.00 0.00 0.00 0.00 0.00 0.00 0.00 0.00 0.00 0.00 0.00 0.00 0.00 0.00 0.00 0.00 0.00
0.00 0.00 0.00 0.00 0.01 0.01 0.02 0.02 0.02 0.02 0.02 0.02 0.02 0.02 0.02 0.02 0.02 0.05 0.07 0.07 0.05 0.03 0.03 0.02 0.01 0.00 0.00 0.00 0.00 0.00 0.00 0.00 0.00 0.00 0.00 0.00 0.00 0.00 0.01 0.01 0.00 0.00 0.00 0.00 0.00 0.00 0.00 0.00 0.00
0.00 0.00 0.00 0.00 0.00 0.01 0.01 0.02 0.02 0.02 0.02 0.02 0.02 0.02 0.02 0.01 0.01 0.04 0.06 0.06 0.05 0.05 0.03 0.02 0.02 0.01 0.01 0.00 0.00 0.00 0.01 0.00 0.00 0.00 0.00 0.00 0.00 0.00 0.00 0.00 0.00 0.00 0.00 0.00 0.00 0.01 0.00 0.00 0.00
0.00 0.01 0.01 0.00 0.01 0.00 0.01 0.02 0.03 0.03 0.02 0.01 0.01 0.01 0.02 0.03 0.02 0.03 0.04 0.05 0.04 0.04 0.04 0.03 0.02 0.01 0.01 0.01 0.01 0.01 0.01 0.01 0.01 0.01 0.00 0.00 0.00 0.00 0.00 0.00 0.00 0.01 0.01 0.01 0.01 0.01 0.01 0.01 0.01
0.00 0.01 0.03 0.02 0.01 0.01 0.02 0.01 0.03 0.03 0.03 0.02 0.02 0.03 0.04 0.04 0.03 0.02 0.03 0.04 0.04 0.03 0.02 0.03 0.02 0.02 0.01 0.01 0.01 0.02 0.02 0.01 0.01 0.01 0.01 0.01 0.01 0.01 0.01 0.00 0.01 0.01 0.01 0.01 0.01 0.01 0.02 0.02 0.01
0.00 0.00 0.02 0.02 0.01 0.01 0.01 0.01 0.02 0.03 0.02 0.02 0.02 0.04 0.04 0.03 0.04 0.04 0.03 0.03 0.04 0.03 0.02 0.02 0.02 0.02 0.02 0.02 0.01 0.02 0.03 0.02 0.01 0.01 0.01 0.01 0.01 0.01 0.01 0.01 0.01 0.01 0.01 0.01 0.01 0.01 0.01 0.02 0.02
0.00 0.00 0.01 0.01 0.01 0.02 0.01 0.02 0.02 0.02 0.02 0.01 0.01 0.02 0.03 0.03 0.05 0.06 0.07 0.07 0.07 0.06 0.04 0.04 0.03 0.02 0.01 0.01 0.01 0.02 0.02 0.01 0.01 0.01 0.01 0.01 0.02 0.02 0.02 0.01 0.01 0.01 0.00 0.01 0.01 0.01 0.01 0.01 0.01
0.00 0.01 0.01 0.01 0.01 0.02 0.02 0.01 0.03 0.03 0.03 0.03 0.02 0.02 0.03 0.02 0.03 0.04 0.06 0.09 0.10 0.09 0.09 0.06 0.04 0.03 0.02 0.01 0.01 0.01 0.01 0.01 0.01 0.01 0.01 0.01 0.01 0.01 0.01 0.01 0.01 0.01 0.01 0.01 0.01 0.01 0.01 0.01 0.01
0.00 0.02 0.02 0.01 0.01 0.03 0.02 0.01 0.02 0.05 0.06 0.04 0.04 0.04 0.05 0.04 0.03 0.03 0.05 0.09 0.10 0.10 0.12 0.10 0.06 0.04 0.02 0.02 0.01 0.01 0.01 0.01 0.01 0.01 0.01 0.00 0.00 0.01 0.01 0.01 0.02 0.02 0.02 0.01 0.02 0.02 0.02 0.01 0.01
0.00 0.01 0.01 0.02 0.02 0.03 0.02 0.01 0.01 0.04 0.07 0.04 0.03 0.04 0.05 0.04 0.04 0.05 0.06 0.06 0.06 0.07 0.10 0.14 0.15 0.09 0.04 0.04 0.02 0.02 0.02 0.01 0.01 0.01 0.00 0.01 0.01 0.01 0.01 0.01 0.01 0.02 0.02 0.02 0.02 0.02 0.01 0.01 0.01
0.00 0.01 0.02 0.02 0.02 0.02 0.02 0.04 0.05 0.05 0.07 0.06 0.05 0.06 0.07 0.07 0.07 0.07 0.10 0.09 0.05 0.04 0.04 0.10 0.15 0.10 0.05 0.04 0.04 0.04 0.03 0.01 0.01 0.01 0.01 0.01 0.02 0.03 0.02 0.02 0.02 0.03 0.04 0.03 0.02 0.02 0.02 0.01 0.01
0.00 0.01 0.01 0.01 0.01 0.02 0.02 0.05 0.10 0.13 0.10 0.07 0.06 0.04 0.05 0.06 0.06 0.08 0.08 0.12 0.13 0.09 0.04 0.06 0.11 0.08 0.05 0.04 0.05 0.05 0.03 0.02 0.01 0.01 0.01 0.02 0.03 0.03 0.04 0.05 0.04 0.06 0.06 0.04 0.04 0.04 0.02 0.01 0.01
0.00 0.00 0.00 0.01 0.01 0.01 0.01 0.05 0.09 0.17 0.19 0.09 0.07 0.04 0.03 0.04 0.04 0.05 0.06 0.10 0.14 0.16 0.09 0.06 0.07 0.08 0.09 0.08 0.06 0.08 0.07 0.04 0.03 0.04 0.04 0.04 0.03 0.04 0.05 0.05 0.05 0.06 0.05 0.03 0.03 0.04 0.03 0.02 0.02
0.00 0.00 0.00 0.00 0.01 0.01 0.03 0.07 0.09 0.14 0.21 0.12 0.08 0.06 0.04 0.05 0.06 0.06 0.07 0.13 0.23 0.21 0.15 0.09 0.06 0.06 0.11 0.17 0.10 0.08 0.10 0.07 0.05 0.04 0.04 0.03 0.02 0.03 0.03 0.04 0.05 0.05 0.03 0.03 0.02 0.03 0.03 0.03 0.03
0.01 0.01 0.01 0.02 0.03 0.02 0.05 0.09 0.09 0.10 0.12 0.10 0.07 0.08 0.06 0.05 0.06 0.08 0.07 0.12 0.21 0.27 0.19 0.15 0.10 0.07 0.08 0.14 0.16 0.08 0.08 0.09 0.07 0.06 0.04 0.03 0.02 0.02 0.04 0.06 0.05 0.03 0.04 0.04 0.03 0.03 0.03 0.03 0.04
0.01 0.01 0.03 0.04 0.05 0.02 0.03 0.07 0.07 0.09 0.10 0.06 0.04 0.05 0.05 0.07 0.08 0.06 0.07 0.09 0.13 0.19 0.19 0.16 0.12 0.09 0.10 0.12 0.14 0.15 0.12 0.10 0.07 0.06 0.05 0.04 0.04 0.05 0.07 0.07 0.06 0.06 0.08 0.08 0.06 0.05 0.04 0.04 0.05
0.02 0.02 0.03 0.04 0.03 0.04 0.03 0.04 0.05 0.07 0.11 0.07 0.04 0.04 0.05 0.05 0.05 0.06 0.07 0.08 0.12 0.16 0.17 0.17 0.16 0.13 0.14 0.14 0.14 0.16 0.17 0.14 0.11 0.09 0.08 0.06 0.06 0.06 0.06 0.05 0.06 0.09 0.09 0.06 0.06 0.09 0.07 0.06 0.06
0.01 0.01 0.02 0.03 0.04 0.04 0.03 0.03 0.04 0.05 0.11 0.09 0.06 0.06 0.09 0.08 0.06 0.06 0.06 0.07 0.13 0.20 0.23 0.23 0.23 0.17 0.16 0.16 0.17 0.17 0.16 0.15 0.13 0.10 0.09 0.08 0.08 0.08 0.09 0.08 0.07 0.06 0.06 0.06 0.07 0.09 0.09 0.07 0.08
0.00 0.01 0.02 0.03 0.04 0.03 0.02 0.03 0.04 0.06 0.09 0.08 0.06 0.07 0.19 0.13 0.08 0.06 0.08 0.10 0.17 0.23 0.27 0.27 0.21 0.18 0.14 0.15 0.14 0.15 0.16 0.14 0.13 0.11 0.11 0.11 0.13 0.15 0.12 0.09 0.08 0.08 0.07 0.06 0.06 0.07 0.06 0.05 0.08
0.01 0.01 0.02 0.03 0.02 0.02 0.02 0.05 0.08 0.10 0.09 0.08 0.06 0.10 0.23 0.21 0.13 0.07 0.07 0.12 0.20 0.22 0.23 0.22 0.16 0.14 0.14 0.13 0.12 0.10 0.09 0.11 0.14 0.12 0.11 0.10 0.12 0.13 0.13 0.12 0.09 0.08 0.08 0.07 0.07 0.08 0.08 0.09 0.10
0.00 0.01 0.02 0.01 0.02 0.03 0.02 0.06 0.13 0.12 0.08 0.06 0.07 0.09 0.12 0.12 0.12 0.08 0.06 0.09 0.13 0.13 0.17 0.18 0.16 0.13 0.10 0.09 0.08 0.07 0.08 0.07 0.08 0.09 0.09 0.10 0.10 0.10 0.11 0.12 0.13 0.11 0.08 0.07 0.08 0.08 0.07 0.06 0.06
0.01 0.01 0.01 0.01 0.02 0.03 0.03 0.06 0.07 0.07 0.10 0.09 0.06 0.07 0.10 0.11 0.08 0.06 0.05 0.06 0.09 0.11 0.14 0.16 0.11 0.08 0.07 0.06 0.07 0.07 0.07 0.06 0.08 0.09 0.08 0.08 0.09 0.10 0.12 0.14 0.17 0.17 0.12 0.09 0.08 0.07 0.06 0.04 0.03
0.01 0.01 0.02 0.02 0.02 0.05 0.05 0.05 0.06 0.07 0.08 0.07 0.04 0.04 0.08 0.09 0.07 0.07 0.07 0.05 0.08 0.10 0.10 0.09 0.06 0.05 0.05 0.06 0.07 0.07 0.06 0.07 0.07 0.06 0.07 0.08 0.10 0.11 0.12 0.15 0.17 0.15 0.10 0.09 0.08 0.07 0.05 0.03 0.03
0.01 0.01 0.05 0.04 0.05 0.06 0.04 0.06 0.10 0.08 0.05 0.05 0.04 0.05 0.08 0.09 0.11 0.09 0.11 0.11 0.10 0.09 0.08 0.06 0.04 0.04 0.03 0.03 0.05 0.05 0.04 0.05 0.05 0.05 0.08 0.09 0.10 0.09 0.12 0.13 0.11 0.08 0.08 0.08 0.08 0.07 0.05 0.04 0.03
0.00 0.02 0.05 0.05 0.08 0.06 0.05 0.08 0.12 0.10 0.08 0.06 0.05 0.08 0.10 0.10 0.08 0.07 0.07 0.07 0.07 0.08 0.07 0.06 0.04 0.03 0.03 0.02 0.03 0.03 0.04 0.05 0.05 0.07 0.07 0.06 0.06 0.06 0.09 0.09 0.07 0.06 0.07 0.07 0.08 0.09 0.08 0.07 0.05
0.01 0.02 0.02 0.03 0.04 0.07 0.09 0.08 0.09 0.07 0.05 0.05 0.05 0.08 0.08 0.07 0.06 0.06 0.07 0.08 0.11 0.07 0.05 0.04 0.03 0.03 0.03 0.03 0.03 0.03 0.04 0.05 0.06 0.06 0.05 0.05 0.05 0.06 0.07 0.07 0.08 0.08 0.07 0.07 0.07 0.07 0.07 0.07 0.06
0.02 0.02 0.04 0.04 0.06 0.07 0.08 0.06 0.06 0.05 0.04 0.04 0.08 0.10 0.12 0.09 0.07 0.07 0.09 0.12 0.13 0.09 0.05 0.05 0.04 0.03 0.03 0.02 0.04 0.04 0.04 0.05 0.05 0.05 0.04 0.04 0.05 0.07 0.08 0.08 0.09 0.10 0.09 0.08 0.07 0.06 0.05 0.04 0.04
0.01 0.02 0.02 0.03 0.05 0.06 0.06 0.07 0.05 0.05 0.05 0.05 0.08 0.11 0.11 0.09 0.08 0.08 0.06 0.07 0.07 0.08 0.09 0.07 0.04 0.03 0.03 0.03 0.03 0.05 0.07 0.07 0.07 0.06 0.05 0.06 0.07 0.09 0.09 0.09 0.10 0.10 0.08 0.06 0.04 0.03 0.03 0.03 0.03
0.01 0.02 0.03 0.04 0.04 0.03 0.05 0.08 0.06 0.05 0.05 0.06 0.09 0.12 0.09 0.09 0.10 0.09 0.05 0.04 0.03 0.03 0.03 0.03 0.02 0.03 0.03 0.04 0.04 0.05 0.06 0.07 0.07 0.06 0.06 0.06 0.06 0.09 0.12 0.10 0.08 0.08 0.07 0.04 0.03 0.02 0.02 0.02 0.02
MSLP
1009.24 1010.42 1011.67 1012.76 1013.49 1013.71 1013.37 1012.54 1011.37 1010.08 1008.90 1007.97 1007.39 1007.13 1007.10 1007.18 1007.19 1007.04 1006.69 1006.18 1005.60 1005.09 1004.75 1004.68 1004.90 1005.38 1006.02 1006.74 1007.43 1008.03 1008.51 1008.89 1009.20 1009.49 1009.80 1010.13 1010.50 1010.88 1011.24 1011.58 1011.87 1012.14 1012.39 1012.66 1012.96 1013.28 1013.60 1013.91 1014.18
1009.58 1010.90 1012.19 1013.19 1013.70 1013.60 1012.88 1011.67 1010.16 1008.61 1007.25 1006.25 1005.68 1005.50 1005.60 1005.81 1005.98 1005.98 1005.78 1005.40 1004.96 1004.57 1004.35 1004.38 1004.67 1005.20 1005.88 1006.62 1007.32 1007.94 1008.46 1008.88 1009.24 1009.59 1009.94 1010.32 1010.70 1011.06 1011.38 1011.65 1011.88 1012.08 1012.29 1012.53 1012.81 1013.13 1013.47 1013.79 1014.07
1010.06 1011.46 1012.70 1013.54 1013.78 1013.36 1012.30 1010.77 1009.00 1007.26 1005.79 1004.76 1004.22 1004.12 1004.31 1004.63 1004.90 1005.02 1004.93 1004.69 1004.39 1004.14 1004.05 1004.20 1004.58 1005.17 1005.88 1006.61 1007.30 1007.90 1008.40 1008.82 1009.21 1009.58 1009.98 1010.37 1010.76 1011.11 1011.40 1011.63 1011.82 1011.98 1012.16 1012.39 1012.67 1013.00 1013.35 1013.69 1013.98
1010.66 1012.03 1013.15 1013.77 1013.74 1013.02 1011.68 1009.92 1007.98 1006.15 1004.66 1003.65 1003.16 1003.10 1003.35 1003.72 1004.04 1004.22 1004.22 1004.09 1003.92 1003.82 1003.88 1004.16 1004.64 1005.28 1005.99 1006.70 1007.34 1007.88 1008.34 1008.74 1009.11 1009.50 1009.91 1010.32 1010.72 1011.08 1011.36 1011.57 1011.74 1011.89 1012.06 1012.29 1012.58 1012.93 1013.29 1013.64 1013.94
1011.25 1012.53 1013.45 1013.82 1013.53 1012.56 1011.03 1009.14 1007.16 1005.34 1003.90 1002.97 1002.54 1002.52 1002.78 1003.14 1003.45 1003.64 1003.69 1003.64 1003.59 1003.64 1003.84 1004.24 1004.81 1005.49 1006.19 1006.85 1007.42 1007.88 1008.27 1008.62 1008.98 1009.36 1009.78 1010.22 1010.64 1011.01 1011.30 1011.52 1011.68 1011.84 1012.02 1012.26 1012.57 1012.92 1013.30 1013.65 1013.94
1011.74 1012.83 1013.51 1013.62 1013.09 1011.94 1010.31 1008.41 1006.48 1004.79 1003.49 1002.67 1002.31 1002.32 1002.56 1002.87 1003.13 1003.29 1003.34 1003.36 1003.41 1003.57 1003.91 1004.41 1005.05 1005.74 1006.42 1007.01 1007.49 1007.87 1008.18 1008.48 1008.82 1009.20 1009.65 1010.12 1010.57 1010.96 1011.27 1011.50 1011.68 1011.84 1012.03 1012.28 1012.60 1012.96 1013.34 1013.68 1013.96
1012.00 1012.84 1013.24 1013.10 1012.36 1011.10 1009.47 1007.66 1005.90 1004.41 1003.30 1002.63 1002.36 1002.40 1002.60 1002.84 1003.02 1003.12 1003.16 1003.21 1003.33 1003.60 1004.03 1004.61 1005.28 1005.97 1006.59 1007.11 1007.50 1007.80 1008.05 1008.32 1008.65 1009.06 1009.54 1010.04 1010.53 1010.95 1011.28 1011.52 1011.70 1011.87 1012.07 1012.32 1012.64 1013.00 1013.37 1013.70 1013.96
1011.96 1012.52 1012.64 1012.25 1011.36 1010.05 1008.48 1006.84 1005.32 1004.08 1003.20 1002.72 1002.55 1002.60 1002.76 1002.92 1003.03 1003.07 1003.09 1003.15 1003.32 1003.66 1004.15 1004.77 1005.45 1006.10 1006.67 1007.11 1007.42 1007.66 1007.88 1008.13 1008.48 1008.93 1009.46 1010.01 1010.54 1010.98 1011.32 1011.56 1011.74 1011.89 1012.08 1012.33 1012.64 1012.99 1013.35 1013.66 1013.90
1011.63 1011.90 1011.75 1011.15 1010.15 1008.84 1007.40 1005.96 1004.70 1003.74 1003.11 1002.80 1002.74 1002.82 1002.95 1003.04 1003.08 1003.06 1003.06 1003.12 1003.33 1003.70 1004.22 1004.85 1005.51 1006.12 1006.61 1006.98 1007.24 1007.44 1007.65 1007.94 1008.33 1008.83 1009.41 1010.01 1010.56 1011.02 1011.36 1011.59 1011.74 1011.88 1012.04 1012.27 1012.57 1012.91 1013.25 1013.55 1013.77
1011.10 1011.10 1010.71 1009.94 1008.87 1007.61 1006.31 1005.10 1004.10 1003.40 1003.00 1002.85 1002.88 1002.98 1003.08 1003.13 1003.11 1003.05 1003.03 1003.10 1003.32 1003.70 1004.23 1004.84 1005.45 1006.00 1006.44 1006.75 1006.98 1007.18 1007.41 1007.74 1008.19 1008.75 1009.38 1010.02 1010.59 1011.05 1011.37 1011.57 1011.70 1011.80 1011.95 1012.16 1012.44 1012.77 1013.10 1013.40 1013.61
1010.48 1010.27 1009.70 1008.81 1007.72 1006.52 1005.37 1004.37 1003.60 1003.12 1002.90 1002.88 1002.97 1003.09 1003.17 1003.17 1003.11 1003.04 1003.00 1003.08 1003.30 1003.67 1004.17 1004.74 1005.30 1005.80 1006.18 1006.47 1006.69 1006.90 1007.18 1007.56 1008.07 1008.68 1009.35 1010.01 1010.58 1011.02 1011.32 1011.49 1011.59 1011.67 1011.79 1011.99 1012.26 1012.59 1012.93 1013.23 1013.44
1009.92 1009.56 1008.87 1007.93 1006.85 1005.74 1004.73 1003.91 1003.33 1003.01 1002.91 1002.96 1003.08 1003.20 1003.26 1003.23 1003.15 1003.05 1003.00 1003.07 1003.28 1003.64 1004.10 1004.62 1005.13 1005.58 1005.94 1006.22 1006.45 1006.70 1007.01 1007.44 1007.99 1008.62 1009.30 1009.94 1010.50 1010.91 1011.18 1011.34 1011.42 1011.50 1011.62 1011.81 1012.09 1012.42 1012.77 1013.07 1013.29
1009.53 1009.09 1008.35 1007.42 1006.39 1005.39 1004.51 1003.83 1003.38 1003.16 1003.12 1003.20 1003.32 1003.41 1003.43 1003.38 1003.27 1003.16 1003.10 1003.15 1003.33 1003.65 1004.06 1004.54 1005.00 1005.42 1005.77 1006.06 1006.32 1006.60 1006.95 1007.40 1007.95 1008.57 1009.21 1009.82 1010.32 1010.71 1010.96 1011.10 1011.20 1011.29 1011.43 1011.65 1011.95 1012.30 1012.64 1012.95 1013.18
1009.38 1008.92 1008.20 1007.32 1006.38 1005.50 1004.74 1004.17 1003.81 1003.64 1003.62 1003.69 1003.77 1003.82 1003.80 1003.70 1003.56 1003.42 1003.34 1003.36 1003.50 1003.76 1004.13 1004.56 1004.99 1005.40 1005.76 1006.07 1006.36 1006.67 1007.03 1007.46 1007.96 1008.52 1009.08 1009.61 1010.06 1010.41 1010.65 1010.82 1010.94 1011.08 1011.26 1011.52 1011.84 1012.20 1012.56 1012.86 1013.08
1009.44 1009.00 1008.34 1007.56 1006.75 1005.99 1005.36 1004.88 1004.58 1004.44 1004.41 1004.43 1004.46 1004.46 1004.38 1004.25 1004.07 1003.89 1003.76 1003.72 1003.80 1004.00 1004.31 1004.69 1005.11 1005.52 1005.90 1006.25 1006.58 1006.90 1007.23 1007.61 1008.02 1008.47 1008.92 1009.35 1009.72 1010.03 1010.28 1010.48 1010.66 1010.87 1011.12 1011.42 1011.76 1012.12 1012.47 1012.76 1012.97
1009.62 1009.24 1008.68 1008.03 1007.36 1006.75 1006.24 1005.86 1005.60 1005.46 1005.41 1005.39 1005.37 1005.30 1005.18 1005.00 1004.77 1004.54 1004.35 1004.23 1004.23 1004.35 1004.59 1004.93 1005.34 1005.76 1006.18 1006.57 1006.92 1007.24 1007.53 1007.82 1008.12 1008.42 1008.73 1009.04 1009.33 1009.61 1009.86 1010.12 1010.38 1010.66 1010.98 1011.32 1011.68 1012.03 1012.36 1012.61 1012.80
1009.85 1009.53 1009.09 1008.58 1008.08 1007.62 1007.24 1006.94 1006.74 1006.61 1006.53 1006.46 1006.39 1006.28 1006.11 1005.88 1005.60 1005.30 1005.03 1004.82 1004.72 1004.75 1004.92 1005.21 1005.60 1006.04 1006.50 1006.93 1007.30 1007.61 1007.86 1008.05 1008.21 1008.36 1008.52 1008.71 1008.92 1009.17 1009.45 1009.76 1010.10 1010.46 1010.83 1011.21 1011.56 1011.89 1012.17 1012.39 1012.54
1010.02 1009.78 1009.46 1009.12 1008.79 1008.50 1008.24 1008.04 1007.87 1007.74 1007.63 1007.53 1007.41 1007.25 1007.04 1006.76 1006.43 1006.07 1005.71 1005.40 1005.19 1005.12 1005.20 1005.44 1005.81 1006.28 1006.77 1007.24 1007.64 1007.94 1008.13 1008.23 1008.27 1008.28 1008.31 1008.39 1008.54 1008.76 1009.07 1009.44 1009.85 1010.27 1010.68 1011.06 1011.40 1011.69 1011.91 1012.08 1012.19
1010.11 1009.95 1009.76 1009.60 1009.45 1009.31 1009.18 1009.05 1008.91 1008.77 1008.62 1008.46 1008.29 1008.08 1007.83 1007.52 1007.14 1006.70 1006.26 1005.85 1005.53 1005.35 1005.34 1005.53 1005.88 1006.35 1006.88 1007.39 1007.82 1008.12 1008.29 1008.32 1008.27 1008.17 1008.10 1008.10 1008.21 1008.43 1008.76 1009.17 1009.63 1010.08 1010.51 1010.88 1011.18 1011.41 1011.58 1011.70 1011.79
1010.13 1010.06 1010.03 1010.04 1010.07 1010.08 1010.06 1009.97 1009.82 1009.63 1009.41 1009.17 1008.92 1008.66 1008.36 1008.00 1007.58 1007.10 1006.58 1006.08 1005.67 1005.39 1005.30 1005.42 1005.75 1006.22 1006.77 1007.32 1007.79 1008.11 1008.28 1008.29 1008.19 1008.04 1007.91 1007.87 1007.96 1008.18 1008.53 1008.97 1009.46 1009.92 1010.34 1010.68 1010.93 1011.10 1011.22 1011.30 1011.38
1010.15 1010.20 1010.35 1010.54 1010.74 1010.88 1010.91 1010.82 1010.62 1010.32 1009.98 1009.62 1009.26 1008.90 1008.54 1008.14 1007.68 1007.16 1006.60 1006.05 1005.56 1005.21 1005.06 1005.12 1005.41 1005.88 1006.45 1007.03 1007.54 1007.91 1008.11 1008.14 1008.04 1007.88 1007.76 1007.71 1007.80 1008.04 1008.40 1008.86 1009.34 1009.80 1010.18 1010.48 1010.67 1010.79 1010.86 1010.92 1011.00
1010.25 1010.47 1010.80 1011.19 1011.54 1011.77 1011.82 1011.68 1011.35 1010.88 1010.35 1009.80 1009.29 1008.81 1008.36 1007.91 1007.43 1006.90 1006.34 1005.76 1005.25 1004.86 1004.66 1004.68 1004.95 1005.41 1005.99 1006.60 1007.15 1007.57 1007.82 1007.90 1007.85 1007.74 1007.65 1007.64 1007.75 1008.00 1008.38 1008.83 1009.30 1009.72 1010.05 1010.29 1010.43 1010.50 1010.55 1010.61 1010.70
1010.51 1010.92 1011.47 1012.04 1012.52 1012.80 1012.82 1012.56 1012.05 1011.36 1010.57 1009.79 1009.07 1008.44 1007.89 1007.39 1006.90 1006.40 1005.86 1005.32 1004.83 1004.44 1004.23 1004.24 1004.49 1004.94 1005.52 1006.14 1006.72 1007.20 1007.51 1007.66 1007.69 1007.65 1007.62 1007.66 1007.81 1008.09 1008.46 1008.89 1009.31 1009.68 1009.96 1010.14 1010.23 1010.27 1010.31 1010.37 1010.50
1010.96 1011.58 1012.34 1013.07 1013.65 1013.95 1013.90 1013.48 1012.74 1011.77 1010.70 1009.65 1008.70 1007.89 1007.23 1006.69 1006.22 1005.76 1005.30 1004.85 1004.43 1004.10 1003.92 1003.94 1004.18 1004.61 1005.18 1005.80 1006.40 1006.91 1007.28 1007.50 1007.60 1007.65 1007.69 1007.79 1007.98 1008.27 1008.63 1009.03 1009.40 1009.72 1009.93 1010.05 1010.10 1010.12 1010.14 1010.22 1010.37
1011.57 1012.40 1013.34 1014.21 1014.86 1015.14 1014.99 1014.38 1013.40 1012.15 1010.79 1009.46 1008.28 1007.30 1006.55 1005.98 1005.54 1005.17 1004.83 1004.50 1004.20 1003.96 1003.86 1003.91 1004.15 1004.56 1005.10 1005.71 1006.30 1006.81 1007.22 1007.49 1007.66 1007.78 1007.89 1008.04 1008.26 1008.56 1008.91 1009.26 1009.58 1009.82 1009.98 1010.05 1010.06 1010.06 1010.08 1010.16 1010.32
1012.28 1013.27 1014.35 1015.32 1016.00 1016.24 1015.97 1015.19 1013.98 1012.48 1010.86 1009.30 1007.93 1006.82 1005.99 1005.42 1005.04 1004.78 1004.58 1004.41 1004.26 1004.15 1004.13 1004.24 1004.49 1004.88 1005.38 1005.94 1006.49 1006.99 1007.39 1007.69 1007.90 1008.07 1008.23 1008.43 1008.67 1008.96 1009.28 1009.60 1009.86 1010.04 1010.14 1010.16 1010.13 1010.10 1010.10 1010.18 1010.33
1012.97 1014.08 1015.24 1016.24 1016.91 1017.10 1016.72 1015.80 1014.43 1012.75 1010.96 1009.25 1007.75 1006.56 1005.71 1005.16 1004.87 1004.73 1004.68 1004.67 1004.67 1004.70 1004.78 1004.94 1005.20 1005.57 1006.02 1006.51 1007.00 1007.44 1007.81 1008.10 1008.33 1008.52 1008.72 1008.94 1009.19 1009.48 1009.78 1010.05 1010.27 1010.40 1010.44 1010.41 1010.34 1010.27 1010.25 1010.29 1010.40
1013.56 1014.70 1015.87 1016.86 1017.48 1017.60 1017.16 1016.16 1014.70 1012.95 1011.10 1009.33 1007.81 1006.62 1005.79 1005.31 1005.10 1005.08 1005.17 1005.30 1005.44 1005.60 1005.76 1005.96 1006.23 1006.57 1006.95 1007.36 1007.76 1008.12 1008.44 1008.70 1008.91 1009.11 1009.32 1009.55 1009.82 1010.11 1010.40 1010.64 1010.81 1010.90 1010.89 1010.82 1010.70 1010.59 1010.51 1010.50 1010.56
1013.97 1015.06 1016.17 1017.08 1017.64 1017.70 1017.22 1016.22 1014.79 1013.08 1011.30 1009.61 1008.16 1007.05 1006.30 1005.90 1005.78 1005.86 1006.05 1006.28 1006.52 1006.75 1006.97 1007.20 1007.45 1007.74 1008.04 1008.36 1008.67 1008.95 1009.20 1009.40 1009.59 1009.78 1010.00 1010.25 1010.53 1010.83 1011.11 1011.34 1011.50 1011.55 1011.51 1011.40 1011.23 1011.06 1010.92 1010.84 1010.82
1014.19 1015.17 1016.14 1016.94 1017.41 1017.43 1016.96 1016.03 1014.72 1013.18 1011.57 1010.07 1008.79 1007.82 1007.20 1006.89 1006.84 1006.98 1007.22 1007.50 1007.77 1008.02 1008.26 1008.48 1008.70 1008.93 1009.16 1009.39 1009.61 1009.80 1009.97 1010.13 1010.29 1010.48 1010.70 1010.97 1011.27 1011.59 1011.89 1012.12 1012.28 1012.32 1012.26 1012.10 1011.89 1011.66 1011.45 1011.28 1011.16
Thickness
5793 5794 5792 5782 5759 5741 5741 5761 5781 5789 5796 5810 5815 5810 5802 5795 5786 5777 5803 5811 5807 5804 5801 5798 5797 5795 5793 5791 5789 5787 5784 5782 5779 5777 5775 5773 5770 5768 5766 5764 5762 5759 5757 5755 5753 5752 5750 5749 5747
5791 5791 5782 5765 5742 5727 5740 5768 5779 5791 5802 5811 5811 5808 5801 5796 5803 5801 5803 5806 5805 5802 5799 5796 5794 5793 5790 5788 5786 5784 5782 5779 5777 5774 5772 5770 5768 5765 5763 5761 5759 5757 5755 5753 5751 5749 5748 5746 5745
5789 5787 5766 5749 5737 5733 5749 5775 5784 5796 5809 5809 5803 5804 5798 5793 5801 5802 5806 5806 5802 5799 5796 5794 5792 5790 5787 5785 5783 5781 5779 5776 5774 5771 5769 5767 5765 5762 5760 5758 5756 5754 5752 5750 5749 5747 5745 5744 5742
5781 5769 5757 5740 5739 5753 5767 5780 5788 5793 5800 5806 5802 5793 5796 5804 5805 5806 5807 5804 5799 5795 5793 5791 5789 5787 5784 5782 5780 5777 5775 5773 5771 5769 5766 5764 5762 5760 5758 5756 5754 5752 5750 5748 5746 5745 5743 5741 5740
5772 5753 5738 5730 5742 5762 5779 5789 5792 5789 5793 5798 5798 5786 5785 5800 5807 5806 5803 5800 5795 5791 5789 5787 5785 5783 5781 5779 5776 5774 5771 5769 5768 5766 5763 5761 5759 5757 5755 5753 5751 5749 5747 5745 5743 5742 5741 5739 5737
5752 5741 5723 5722 5743 5765 5780 5789 5790 5788 5789 5794 5792 5781 5778 5794 5797 5798 5799 5795 5793 5788 5785 5782 5780 5779 5777 5775 5773 5770 5768 5766 5764 5762 5760 5758 5756 5754 5752 5750 5748 5746 5744 5742 5741 5739 5738 5737 5735
5743 5732 5726 5734 5743 5757 5778 5790 5786 5783 5784 5789 5793 5776 5775 5785 5792 5794 5792 5789 5787 5784 5781 5778 5776 5774 5773 5771 5769 5767 5764 5762 5760 5759 5757 5755 5752 5750 5748 5747 5745 5743 5741 5740 5738 5736 5735 5734 5732
5751 5735 5732 5735 5743 5753 5777 5785 5787 5785 5783 5795 5794 5775 5769 5780 5789 5789 5786 5783 5780 5778 5777 5774 5772 5770 5769 5767 5765 5763 5761 5758 5756 5755 5753 5751 5748 5746 5745 5743 5742 5740 5738 5737 5735 5733 5732 5731 5729
5755 5727 5721 5736 5746 5755 5775 5776 5781 5789 5786 5786 5789 5785 5785 5787 5785 5781 5777 5774 5772 5771 5771 5770 5767 5766 5764 5763 5761 5758 5757 5754 5752 5750 5749 5747 5744 5742 5741 5740 5739 5737 5735 5734 5732 5730 5729 5728 5726
5741 5720 5733 5753 5760 5762 5769 5771 5776 5774 5770 5772 5777 5783 5785 5782 5778 5772 5770 5767 5765 5764 5765 5765 5762 5761 5759 5757 5756 5754 5752 5750 5748 5746 5745 5743 5741 5739 5737 5736 5735 5733 5731 5730 5729 5728 5726 5725 5723
5742 5734 5747 5758 5766 5767 5765 5768 5776 5767 5758 5766 5769 5772 5774 5773 5770 5767 5766 5765 5764 5762 5761 5760 5759 5757 5755 5753 5751 5749 5748 5746 5744 5742 5741 5739 5737 5735 5733 5732 5730 5729 5727 5725 5724 5724 5723 5721 5720
5743 5749 5755 5758 5767 5765 5764 5765 5765 5764 5765 5777 5777 5775 5771 5766 5764 5761 5761 5760 5760 5758 5756 5756 5754 5753 5751 5749 5747 5745 5744 5743 5741 5738 5736 5735 5732 5731 5729 5727 5726 5725 5723 5721 5720 5719 5718 5717 5716
5741 5747 5757 5761 5763 5764 5763 5760 5759 5760 5770 5774 5772 5768 5763 5760 5760 5757 5758 5757 5757 5753 5752 5752 5751 5749 5748 5746 5744 5742 5740 5739 5738 5735 5733 5731 5729 5726 5725 5723 5722 5720 5719 5717 5716 5715 5714 5713 5712
5745 5749 5752 5755 5758 5760 5755 5755 5754 5754 5765 5765 5763 5759 5759 5757 5755 5754 5752 5750 5751 5749 5749 5749 5748 5747 5744 5741 5740 5739 5737 5735 5733 5731 5730 5728 5726 5723 5720 5718 5717 5716 5714 5713 5712 5710 5709 5708 5707
5749 5741 5742 5748 5752 5753 5751 5740 5745 5753 5758 5754 5754 5754 5754 5752 5751 5748 5747 5747 5748 5746 5745 5744 5744 5742 5741 5739 5737 5735 5732 5730 5729 5728 5726 5724 5722 5719 5716 5713 5711 5710 5709 5708 5706 5705 5704 5703 5702
5738 5727 5720 5739 5748 5750 5738 5719 5741 5752 5751 5744 5745 5747 5747 5747 5746 5745 5745 5744 5743 5741 5740 5739 5739 5736 5735 5735 5733 5730 5728 5726 5724 5723 5721 5719 5717 5715 5712 5709 5707 5705 5704 5702 5700 5698 5697 5696 5695
5715 5706 5712 5728 5744 5744 5733 5720 5736 5745 5744 5738 5738 5740 5740 5740 5740 5741 5741 5740 5738 5736 5735 5732 5731 5729 5729 5728 5727 5725 5723 5720 5719 5718 5716 5714 5713 5711 5708 5705 5703 5701 5698 5696 5695 5693 5691 5690 5689
5704 5707 5712 5717 5734 5735 5725 5721 5731 5737 5736 5733 5733 5734 5734 5734 5734 5737 5737 5735 5734 5732 5731 5727 5725 5723 5722 5721 5720 5719 5717 5716 5715 5714 5712 5710 5708 5707 5704 5702 5699 5696 5693 5691 5689 5687 5687 5685 5684
5720 5715 5713 5721 5735 5729 5720 5717 5723 5729 5727 5725 5725 5727 5728 5729 5731 5731 5731 5729 5727 5726 5725 5721 5718 5717 5715 5714 5713 5711 5709 5709 5710 5709 5708 5706 5705 5702 5699 5697 5695 5692 5688 5686 5684 5683 5681 5680 5680
5723 5714 5713 5720 5732 5725 5713 5710 5716 5721 5721 5721 5720 5721 5722 5722 5723 5724 5723 5722 5720 5720 5719 5716 5713 5711 5711 5710 5709 5708 5706 5704 5703 5703 5703 5702 5700 5698 5696 5692 5690 5687 5684 5681 5679 5677 5675 5674 5674
5722 5716 5715 5714 5722 5721 5710 5698 5704 5713 5717 5719 5719 5719 5720 5720 5717 5718 5718 5717 5716 5715 5714 5713 5710 5709 5708 5707 5706 5704 5701 5699 5697 5697 5697 5697 5696 5694 5692 5687 5685 5683 5680 5675 5674 5672 5670 5667 5667
5714 5729 5727 5721 5706 5694 5701 5676 5690 5700 5703 5708 5710 5712 5714 5716 5716 5716 5716 5714 5712 5712 5711 5708 5707 5706 5705 5704 5701 5698 5695 5692 5693 5693 5692 5692 5691 5690 5687 5684 5681 5679 5675 5672 5670 5669 5667 5664 5660
5726 5734 5726 5717 5703 5690 5691 5677 5680 5694 5693 5698 5704 5708 5709 5711 5712 5711 5712 5712 5710 5709 5707 5705 5703 5702 5701 5700 5697 5694 5692 5690 5690 5689 5687 5686 5685 5684 5682 5680 5676 5673 5670 5668 5665 5664 5662 5659 5656
5736 5726 5717 5704 5690 5674 5681 5676 5673 5683 5689 5695 5700 5704 5705 5707 5708 5707 5708 5707 5705 5705 5703 5701 5699 5697 5697 5695 5693 5690 5688 5686 5684 5683 5681 5680 5679 5678 5677 5675 5672 5669 5666 5664 5661 5659 5657 5654 5652
5724 5701 5680 5674 5665 5665 5682 5675 5673 5689 5695 5695 5696 5698 5700 5703 5703 5702 5701 5701 5700 5699 5698 5697 5695 5692 5692 5691 5689 5687 5685 5683 5680 5678 5676 5674 5672 5671 5670 5669 5666 5664 5662 5659 5657 5655 5652 5649 5646
5716 5703 5676 5664 5659 5663 5676 5669 5678 5693 5696 5697 5696 5696 5696 5697 5698 5698 5698 5698 5696 5695 5694 5692 5690 5688 5687 5686 5685 5683 5681 5679 5677 5675 5672 5670 5668 5667 5666 5663 5661 5659 5657 5655 5653 5650 5647 5644 5641
5714 5702 5701 5680 5672 5660 5665 5673 5682 5692 5692 5693 5692 5692 5692 5693 5694 5694 5694 5694 5693 5692 5690 5689 5687 5685 5683 5682 5680 5679 5677 5674 5672 5670 5669 5666 5664 5663 5662 5659 5657 5655 5654 5651 5648 5645 5642 5639 5635
5723 5710 5691 5676 5661 5654 5661 5666 5667 5678 5683 5687 5687 5688 5690 5691 5692 5691 5691 5690 5690 5689 5687 5686 5684 5682 5680 5678 5676 5675 5672 5670 5667 5666 5663 5661 5660 5658 5656 5654 5653 5651 5649 5646 5643 5640 5637 5633 5629
5714 5705 5691 5675 5670 5658 5649 5659 5685 5683 5684 5684 5686 5688 5688 5688 5688 5688 5688 5688 5686 5685 5683 5682 5680 5678 5676 5675 5673 5670 5667 5665 5663 5660 5658 5656 5654 5653 5651 5650 5648 5646 5644 5641 5638 5634 5631 5627 5623
5720 5707 5692 5673 5667 5664 5654 5660 5691 5688 5687 5686 5686 5687 5687 5687 5686 5685 5684 5683 5682 5680 5679 5678 5676 5674 5672 5671 5669 5666 5663 5660 5657 5655 5654 5653 5650 5649 5647 5645 5643 5641 5639 5636 5632 5628 5625 5621 5617